Regional Weather Roundup
Issued by NWS

Home | Current Version | Previous Version | Graphics & Text | Print | Product List | Glossary On
Versions: 1 2 3 4 5 6 7 8 9 10 11 12 13 14 15 16 17 18 19 20 21 22 23 24 25 26 27 28 29 30 31 32 33 34 35 36 37 38 39 40 41 42 43 44 45 46 47 48 49 50
908
ASUS44 KLIX 070301
RWRLA
LOUISIANA WEATHER ROUNDUP
NATIONAL WEATHER SERVICE NEW ORLEANS LA
900 PM CST FRI MAR 06 2015

NOTE: "FAIR" INDICATES FEW OR NO CLOUDS BELOW 12,000 FEET WITH NO
      SIGNIFICANT WEATHER AND/OR OBSTRUCTIONS TO VISIBILITY.
      SKY/WX - SKY CONDITION AND SIGNIFICANT WEATHER.
      TMP - AIR TEMPERATURE.    DP   - DEWPOINT TEMPERATURE.
      RH  - RELATIVE HUMIDITY.  PRES - PRESSURE.
      HX  - HEAT INDEX.         WCI  - WIND CHILL INDEX.

*  THESE STATIONS ARE NOT NWS OR FAA STATIONS AND ARE NOT UNDER
   NWS QUALITY CONTROL.

LAZ040-048-061>063-065-066-069-070400-
SOUTHEAST LOUISIANA

CITY           SKY/WX    TMP DP  RH WIND       PRES   REMARKS
N.O. AUDUBON     N/A     50  27  40 MISG        N/A
N.O. INTL ARPT MOCLDY    48  24  39 N10       30.47R
N.O. LAKEFRONT CLOUDY    52  26  36 N14       30.48R
SLIDELL        MOCLDY    40  34  79 CALM      30.47R
BATON ROUGE    CLEAR     43  19  38 NW5       30.49R
BOOTHVILLE     PTCLDY    49  32  52 N7        30.44S
BELLE CHASSE   NOT AVBL
BOGALUSA*        N/A     38  28  68 N3        30.49S
GALLIANO*      CLOUDY    45  33  61 N5        30.45F
NEW ROADS*     NOT AVBL
GONZALES*      NOT AVBL
HAMMOND*       NOT AVBL
HOUMA*         CLOUDY    44  30  58 N6        30.46S
PORT FOURCHON* CLEAR     48  32  53 N6        30.47F

$$

LAZ041-044-053-054-070400-
SOUTHWEST LOUISIANA

CITY           SKY/WX    TMP DP  RH WIND       PRES   REMARKS
LAKE CHARLES   CLEAR     40  29  64 E3        30.49R
LAFAYETTE      CLEAR     40  23  50 N7        30.49R
PATTERSON      PTCLDY    46  25  42 N7        30.48R
SALT POINT       N/A     44  28  53 VRB3      30.46R
NEW IBERIA     CLEAR     40  25  55 N6        30.50R
CHENAULT AIRPK CLEAR     41  29  62 NE3       30.49S

$$

LAZ027-028-070400-
CENTRAL LOUISIANA

CITY           SKY/WX    TMP DP  RH WIND       PRES   REMARKS
FORT POLK      NOT AVBL
ALEXANDRIA INT CLEAR     39  22  50 NE7       30.50S WCI  34
ALEXANDRIA     CLEAR     32  25  75 CALM      30.52R

$$

LAZ001-002-070400-
NORTHWEST LOUISIANA

CITY           SKY/WX    TMP DP  RH WIND       PRES   REMARKS
SHREVEPORT     CLEAR     36  28  73 CALM      30.50R
BARKSDALE AFB  NOT AVBL
DTN SHREVEPORT CLEAR     38  24  57 CALM      30.50R

$$

LAZ014-016-070400-
NORTHEAST LOUISIANA

CITY           SKY/WX    TMP DP  RH WIND       PRES   REMARKS
MONROE         CLEAR     33  29  85 CALM      30.54R
TALLULAH       CLEAR     31  24  75 NW3       30.53R

$$




USA.gov is the U.S. government's official web portal to all federal, state and local government web resources and services.